Weather in Nagorskoye

Russia / Kurgan Oblast     55°08′59″N   65°11′44″E
temp.,
°C
wind,
m/s
gust,
m/s
humid.,
%
clouds,
%
prec.,
mm/h
press.,
hPa
HPBL,
m
15 april, thu
thu1523:00+9sw34815 0.0 102957
02:00+8sw458089 0.0 102867
05:00+7sw34785 0.0 102850
08:00+9ssw467455 0.0 1027167
11:00+15sw575451 0.0 1026508
14:00+18sw67415 0.0 1024898
17:00+18wsw574619 0.0 1022646
20:00+13sw45595 0.0 102164
16 april, fri
fri1623:00+10sw466341 0.0 102071
02:00+9sw3469100 0.0 102048
05:00+8wsw2281100 0.0 101917
08:00+10nnw267923 0.0 1019188
11:00+11nne8878100 0.0 1022798
14:00+7ne7877100 0.0 1024691
17:00+8ene676998 0.0 1024968
20:00+6ene2573100 0.0 1024195
17 april, sat
sat1723:00+4ene228089 0.0 102429
02:00+3ene238258 0.0 102437
05:00+2ene11825 0.0 102410
08:00+4n227140 0.0 1024180
11:00+8n34475 0.0 10231226
14:00+11nw34365 0.0 10221878
17:00+11nw343658 0.0 10212049
20:00+7nw34548 0.0 102041
18 april, sun
sun1823:00+5w22605 0.0 101911
02:00+3wsw476941 0.0 1017115
05:00+3w51082100 0.0 1015271
08:00+5wnw711655 0.0 1014721
11:00+3nw8125399 0.0 10151305
14:00+4nnw11123898 0.0 10172508
17:00+2n101341100 0.0 10212305
20:00−1nne712390 0.0 10241360
19 april, mon
mon1923:00−3nne612455 0.0 10261617
02:00−5n611459 0.0 10271627
05:00−6n694779 0.0 10301572
08:00−5n81037100 0.0 10311781
11:00−3n81035100 0.0 10322348
14:00−1nne7925100 0.0 10322345
17:000nne682785 0.0 10322201
20:00−3n35405 0.0 103474